www.pogodaiklimat.ru

Погода и климат >> Архив погоды >> Алжир >> Chlef


ПОГОДА в Chlef

  • Прогноз погоды в Chlef
  • Монитор погоды в Chlef
  • Климат города

АРХИВ ПОГОДЫ в Chlef

Время (UTC), дата Ветер
(напр.,м/с)
 
Видим.   Явления Облачность Т
(С)
Тd
(С)
f
(%)
Тe
(С)
Тes
(С)
Комфортность P
(гПа)
Po
(гПа)
Тmin
(С)
Tmax
(С)
R
(мм)
R24
(мм)
S
(см)
00 12.12 З 3 8000 м слабый дождь {морось} 10/8 600 м
[St As op]
+10.8 +9.0 89 +9 +9 1009.1 1009.0 0.8
03 12.12 З 2 8000 м в посл. час дождь 10/6 800 м
[Cb cap As op]
+10.3 +9.7 96 +9 +9 1010.3 1010.0
06 12.12 штиль 0 8000 м в посл. час дождь 10/6 800 м
[Cb cap As op]
+9.5 +8.9 96 +9 +9 1011.4 1011.0 +9.5 2
09 12.12 З 1 10 км 10/6 600 м
[Cu med, cong As op]
+9.8 +8.2 90 +9 +9 1014.8 1015.0
12 12.12 ЮЗ 1 10 км 10/5 800 м
[Cu med, cong Ac As]
+12.0 +8.0 76 +12 +13 1016.0 1016.0
15 12.12 ЮЗ 2 10 км 10/6 700 м
[Cb cap Ac As]
+12.4 +9.3 81 +12 +12 1016.6 1017.0
18 12.12 ЮЗ 2 10 км слабый дождь 10/6 700 м
[Cb cap As op]
+11.6 +10.4 92 +11 +11 1019.8 1020.0 +13.1 3
21 12.12 З 1 10 км {дождь} 10/6 800 м
[Cu med, cong Ac As]
+10.2 +9.4 95 +10 +10 1022.2 1022.0
00 13.12 СЗ 2 10 км {дождь} 10/6 800 м
[Cu med, cong Ac trans]
+10.0 +9.0 93 +9 +9 1024.0 1024.0 0.5
03 13.12 С 1 10 км 5/4 800 м
[Cu med, cong Ac trans]
+7.6 +7.0 96 +7 +7 1025.5 1026.0
06 13.12 штиль 0 10 км 5/5 600 м
[Cu med, cong]
+7.8 +6.9 94 +7 +7 1027.2 1027.0 +7.5 3
09 13.12 штиль 0 600 м туман ?/? +8.8 +8.4 97 +8 +8 1028.4 1028.0
12 13.12 штиль 0 8000 м {туман} 8/8 600 м
[St]
+11.0 +9.0 87 +10 +12 1028.5 1029.0
15 13.12 штиль 0 15 км 4/4 800 м
[Cu med, cong]
+15.0 +9.2 68 +15 +16 1027.2 1027.0
18 13.12 штиль 0 10 км ясно +10.5 +7.4 81 +10 +10 1027.6 1028.0 +15.5
21 13.12 штиль 0 10 км ясно +8.0 +5.8 86 +7 +7 1027.7 1028.0
00 14.12 штиль 0 10 км ясно +7.0 +5.4 90 +6 +6 1027.5 1028.0
03 14.12 штиль 0 10 км ясно +6.0 +4.4 89 +5 +5 1026.8 1027.0
06 14.12 С 3 10 км ясно +5.3 +3.4 88 +2 +2 1025.9 1026.0 +4.8
09 14.12 В 4 10 км 1/0
[Ci sp]
+7.8 +5.1 83 +5 +6 1026.2 1026.0
12 14.12 ЮЗ 2 10 км ясно +13.0 +7.3 68 +12 +18 1025.2 1025.0
15 14.12 З 5 15 км ясно +16.2 +9.1 63 +15 +16 1021.6 1022.0
18 14.12 З 3 15 км ясно +12.7 +9.8 83 +11 +11 1020.7 1021.0 +16.3
21 14.12 штиль 0 10 км ясно +10.3 +8.3 87 +10 +10 1020.4 1020.0
00 15.12 штиль 0 10 км ясно +8.6 +6.2 85 +8 +8 1019.2 1019.0
03 15.12 штиль 0 10 км 4/0
[Ac trans]
+8.0 +6.3 89 +7 +7 1017.4 1017.0
06 15.12 З 3 10 км 4/0
[Ac trans]
+8.6 +6.9 89 +6 +6 1016.4 1016.0 +7.4
09 15.12 З 3 10 км 9/4 1000 м
[Sc Ac trans]
+12.0 +7.7 75 +10 +11 1016.2 1016.0
12 15.12 ЮЗ 5 10 км 9/5 900 м
[Cu Sc Ac trans]
+14.5 +10.6 77 +13 +14 1014.2 1014.0
15 15.12 ЮЗ 4 15 км 6/4 900 м
[Cu Sc Ac trans]
+16.6 +11.9 74 +16 +16 1012.2 1012.0
18 15.12 З 4 10 км 8/5 900 м
[Cu med, cong Ac trans]
+14.8 +11.5 81 +14 +14 1012.6 1013.0 +16.8
21 15.12 ЮЗ 3 10 км 8/5 900 м
[Cu med, cong Ac trans]
+12.0 +9.0 82 +10 +10 1012.7 1013.0
00 16.12 ЮЗ 4 10 км 8/5 900 м
[Cu med, cong Ac trans]
+13.0 +11.1 88 +11 +11 1011.9 1012.0
03 16.12 С 8 8000 м слабый дождь 8/5 800 м
[Sc Ac trans]
+10.9 +9.3 90 +7 +7 1011.3 1011.0
06 16.12 СВ 2 8000 м {дождь} 6/4 800 м
[Sc Ac trans]
+12.0 +9.0 82 +11 +11 1012.9 1013.0 +9.7 2
09 16.12 штиль 0 10 км в посл. час дождь 8/5 600 м
[Cu Sc Ac trans]
+12.0 +8.6 80 +11 +12 1015.5 1016.0
12 16.12 З 3 10 км {дождь} 6/5 700 м
[Cb cap Ac trans]
+15.0 +11.3 79 +14 +17 1017.1 1017.0 0.6
15 16.12 С 4 10 км 5/5 700 м
[Cb cap]
+15.1 +6.8 58 +14 +15 1017.3 1017.0
18 16.12 С 4 10 км 4/4 700 м
[Cu med, cong]
+11.7 +6.7 71 +10 +10 1019.4 1019.0 +16.5 0.6
21 16.12 штиль 0 10 км 3/3 800 м
[Cu med, cong]
+8.8 +6.0 83 +8 +8 1022.9 1023.0
00 17.12 штиль 0 10 км 3/3 800 м
[Cu med, cong]
+6.7 +5.1 90 +6 +6 1022.9 1023.0
03 17.12 штиль 0 10 км слабый дождь 8/4 800 м
[Cu med, cong Ac trans]
+7.5 +6.4 93 +7 +7 1023.5 1024.0
06 17.12 штиль 0 10 км {дождь} 3/3 800 м
[Cu med, cong]
+6.0 +4.9 93 +5 +5 1024.5 1025.0 +5.7 1
09 17.12 штиль 0 15 км 5/4 800 м
[Cu med, cong Ac trans]
+8.2 +6.9 92 +7 +9 1026.3 1026.0
12 17.12 штиль 0 15 км 9/8 800 м
[Cu Sc Ac trans]
+11.1 +7.8 80 +11 +12 1027.2 1027.0
15 17.12 СЗ 2 10 км 8/6 700 м
[Cb cap Ac trans]
+11.5 +7.6 77 +11 +11 1027.2 1027.0
18 17.12 ЮЗ 1 10 км {дождь} 9/8 700 м
[Cb cap Ac trans]
+9.3 +8.3 93 +9 +9 1028.7 1029.0 +13.2 0.3
21 17.12 СВ 2 10 км 8/6 800 м
[Sc Ac trans]
+7.8 +6.5 91 +6 +6 1030.8 1031.0
00 18.12 СВ 1 10 км 4/4 800 м
[Cu med, cong]
+6.0 +5.1 94 +5 +5 1031.3 1031.0
03 18.12 СВ 1 10 км ясно +5.2 +4.3 94 +4 +4 1031.4 1031.0
06 18.12 СВ 3 10 км ясно +4.4 +3.4 93 +1 +1 1031.5 1032.0 +4.0 0.3
09 18.12 В 4 10 км 6/0
[Ac trans Ci sp]
+6.5 +4.7 88 +3 +4 1031.6 1032.0
12 18.12 ЮВ 1 10 км 4/4 900 м
[Cu med, cong]
+11.4 +7.3 76 +11 +15 1030.9 1031.0
15 18.12 Ю 3 10 км 4/4 900 м
[Cu med, cong]
+14.1 +7.9 66 +13 +14 1028.7 1029.0
18 18.12 СЗ 2 10 км 4/4 900 м
[Cu med, cong Ci sp]
+9.0 +4.5 73 +7 +7 1026.5 1027.0 +14.5
21 18.12 З 2 10 км 4/4 900 м
[Cu med, cong Ci sp]
+8.0 +4.6 79 +6 +6 1026.1 1026.0

 

Местоположение метеостанции Chlef (Алжир): широта 36.22 долгота 1.33 высота над уровнем моря 144 м.

В архиве по умолчанию представлена погода в Chlef за последнюю неделю. Архивные данные за месяц целиком и за предыдущие месяцы, начиная с января 2011 года, Вы можете получить, выбрав интересующий диапазон дат из раскрывающегося списка и нажав кнопку "Ввод!".

Внимание! Время в таблицах - всемирное. Для получения местного времени необходимо прибавить поправку, которая в Chlef равна 1 ч.

Смотрите также архив погоды в соседних городах и на ближайших метеорологических станциях:

Погода в Tenes (Алжир) (31 км)
Погода в Miliana (Алжир) (81 км)
Погода в Relizane (Алжир) (89 км)
Погода в Tiaret (Алжир) (98 км)
Погода в Mostaganem Ville (Алжир) (115 км)
Погода в Medea (Алжир) (126 км)
Погода в Ksar Chellala (Алжир) (147 км)
Погода в Arzew (Алжир) (151 км)
Погода в Mascara Ghriss (Алжир) (154 км)
Погода в Alger (Алжир) (170 км)

Пояснения к столбцам:

Ветер - указаны скорость ветра в м/с - средняя за 10 мин, порывы в срок и между сроками (в фигурных скобках) и направление, откуда дует ветер: С - северный, СВ - северо-восточный, В - восточный, ЮВ - юго-восточный, Ю - южный, ЮЗ - юго-западный, З - западный, СЗ - северо-западный.
Видимость - горизонтальная дальность видимости в метрах или километрах. При видимости от 1 до 10 км при отсутствии осадков обычно наблюдается дымка, при ухудшении видимости до 1 км и менее - туман. В сухую погоду видимость может ухудшаться дымом, пылью или мглою.
Явления - указаны атмосферные явления, наблюдавшиеся в срок или в последний час перед сроком; фигурными скобками обозначены явления, наблюдавшиеся между сроками (за 1-3 часа до срока); квадратными скобками обозначены град или гололедные отложения с указанием их диаметра в мм.
Облачность - указаны через наклонную черту общая и нижняя облачность в баллах и высота нижней границы облаков в метрах; квадратными скобками обозначены формы облаков: Ci - перистые, Cs - перисто-слоистые, Cc - перисто-кучевые, Ac - высококучевые, As - высокослоистые, Sc - слоисто-кучевые, Ns - слоисто-дождевые, Cu - кучевые, Cb - кучево-дождевые. Подробнее классификацию облаков см. в Атласе облаков (PDF).
T - Температура воздуха - температура, измеренная на высоте 2 м над землей.
Td - Температура точки росы - температура, при понижении до которой содержащийся в воздухе водяной пар достигнет насыщения.
f - Относительная влажность воздуха - влажноcть воздуха, измеренная на высоте 2 м над землей.
Te - Эффективная температура - температура, которую ощущает одетый по сезону человек в тени. Характеристика душности погоды. При расчете учитывается влияние влажности воздуха и скорости ветра на теплоощущения человека.
Tes - Эффективная температура на солнце - температура, которую ощущает человек, с поправкой на солнечный нагрев. Характеристика знойности погоды. Зависит от высоты солнца над горизонтом, облачности и скорости ветра. Ночью, в пасмурную погоду, а также при ветре 12 м/с и более поправка равна нулю.
P - Атмосферное давление - приведенное к уровню моря атмосферное давление.
Po - Атмосферное давление - измеренное на уровне метеостанции атмосферное давление.
Tmin - Минимальная температура - минимум температуры воздуха на высоте 2 м над землей.
Tmax - Максимальная температура - максимум температуры воздуха на высоте 2 м над землей.
R - Количество осадков - Количество выпавших осадков за период времени, мм. При наведении курсора мыши на число - период времени, за который выпало указанное количество осадков.
R24 - Количество осадков - Количество выпавших осадков за 24 часа, мм.
S - Снежный покров - Высота снежного покрова, см. При наведении курсора мыши на число - состояние снежного покрова и степень покрытия местности в баллах.